Location: Roanoke
(37.2710°N, 79.9420°W)
Time: 15:15:50
(UTC-05:00)

Courier 1B Rocket - Pass Details

Date: 22 November 2019
Orbit: 920 x 1202 km, 28.2° (Epoch: 05 December)

Event Time Altitude Azimuth Distance (km) Brightness Sun altitude
Rises 13:35:17 0° 231° (SW) 3,648 8.9 28.8°
Reaches altitude 10° 13:38:13 10° 220° (SW) 2,741 8.9 28.6°
Maximum altitude 13:43:48 29° 163° (SSE) 1,803 7.4 28.1°
Drops below altitude 10° 13:49:43 10° 106° (ESE) 2,920 7.5 27.6°
Sets 13:52:57 0° 96° (E) 3,927 8.0 27.3°
